When you browse on this site, cookies collect data to enhance your experience and personalize the content and advertising you see.
Visit our Privacy Policy to learn more. By continuing to use the site, you agree to this use of cookies and data.
  • En España
  • Lista de países
  • Para 7 días
  • Temperatura del agua
  • Mapa Satelital
  • El tiempo en el mapa
  • Informadores
  • user-avatar
    Iniciar sesión

    Tiempo cada hora Kolda

    Hoy, 19 Diciembre, Miércoles

    Tiempo Temperatura Precipitaciones Viento Presión Humedad
    00:00 +25°C° 0 mm 1 mps 758 mmHg 14%
    01:00 +24°C° 0 mm 1 mps 758 mmHg 14%
    02:00 +24°C° 0 mm 1 mps 758 mmHg 15%
    03:00 +24°C° 0 mm 1 mps 758 mmHg 15%
    04:00 +23°C° 0 mm 1 mps 758 mmHg 15%
    05:00 +22°C° 0 mm 1 mps 758 mmHg 16%
    06:00 +24°C° 0 mm 1 mps 758 mmHg 15%
    07:00 +26°C° 0 mm 2 mps 758 mmHg 14%
    08:00 +27°C° 0 mm 2 mps 759 mmHg 13%
    09:00 +30°C° 0 mm 2 mps 758 mmHg 11%
    10:00 +35°C° 0 mm 2 mps 758 mmHg 9%
    11:00 +38°C° 0 mm 3 mps 758 mmHg 7%
    12:00 +39°C° 0 mm 2 mps 757 mmHg 7%
    13:00 +40°C° 0 mm 2 mps 756 mmHg 6%
    14:00 +41°C° 0 mm 2 mps 755 mmHg 6%
    15:00 +40°C° 0 mm 2 mps 755 mmHg 7%
    16:00 +39°C° 0 mm 1 mps 755 mmHg 8%
    17:00 +37°C° 0 mm 1 mps 755 mmHg 9%
    18:00 +34°C° 0 mm 1 mps 755 mmHg 10%
    19:00 +32°C° 0 mm 1 mps 756 mmHg 11%
    20:00 +29°C° 0 mm 2 mps 757 mmHg 12%
    21:00 +28°C° 0 mm 2 mps 757 mmHg 13%
    22:00 +27°C° 0 mm 2 mps 757 mmHg 13%
    23:00 +27°C° 0 mm 2 mps 757 mmHg 14%

    Mañana, 20 Diciembre, Jueves

    Tiempo Temperatura Precipitaciones Viento Presión Humedad
    00:00 +26°C° 0 mm 2 mps 757 mmHg 14%
    01:00 +25°C° 0 mm 2 mps 757 mmHg 14%
    02:00 +24°C° 0 mm 1 mps 757 mmHg 14%
    03:00 +24°C° 0 mm 1 mps 757 mmHg 15%
    04:00 +23°C° 0 mm 1 mps 757 mmHg 15%
    05:00 +23°C° 0 mm 1 mps 757 mmHg 16%
    06:00 +24°C° 0 mm 1 mps 757 mmHg 15%
    07:00 +26°C° 0 mm 1 mps 758 mmHg 14%
    08:00 +28°C° 0 mm 2 mps 758 mmHg 13%
    09:00 +31°C° 0 mm 2 mps 758 mmHg 11%
    10:00 +36°C° 0 mm 2 mps 758 mmHg 9%
    11:00 +39°C° 0 mm 3 mps 757 mmHg 7%
    12:00 +40°C° 0 mm 3 mps 756 mmHg 7%
    13:00 +42°C° 0 mm 3 mps 755 mmHg 7%
    14:00 +43°C° 0 mm 2 mps 754 mmHg 6%
    15:00 +41°C° 0 mm 2 mps 754 mmHg 7%
    16:00 +40°C° 0 mm 2 mps 754 mmHg 8%
    17:00 +39°C° 0 mm 1 mps 754 mmHg 9%
    18:00 +35°C° 0 mm 1 mps 755 mmHg 10%
    19:00 +33°C° 0 mm 1 mps 755 mmHg 11%
    20:00 +30°C° 0 mm 2 mps 756 mmHg 12%
    21:00 +30°C° 0 mm 2 mps 756 mmHg 13%
    22:00 +29°C° 0 mm 2 mps 756 mmHg 14%
    23:00 +28°C° 0 mm 2 mps 757 mmHg 15%

    Pasado mañana, 21 Diciembre, Viernes

    Tiempo Temperatura Precipitaciones Viento Presión Humedad
    00:00 +27°C° 0 mm 2 mps 756 mmHg 18%
    01:00 +26°C° 0 mm 1 mps 756 mmHg 21%
    02:00 +24°C° 0 mm 1 mps 756 mmHg 24%
    03:00 +24°C° 0 mm 1 mps 756 mmHg 25%
    04:00 +24°C° 0 mm 1 mps 756 mmHg 26%
    05:00 +23°C° 0 mm 1 mps 756 mmHg 27%
    06:00 +25°C° 0 mm 2 mps 757 mmHg 23%
    07:00 +27°C° 0 mm 2 mps 757 mmHg 19%
    08:00 +29°C° 0 mm 3 mps 758 mmHg 16%
    09:00 +33°C° 0 mm 3 mps 757 mmHg 13%
    10:00 +36°C° 0 mm 3 mps 757 mmHg 10%
    11:00 +40°C° 0 mm 4 mps 757 mmHg 8%
    12:00 +41°C° 0 mm 4 mps 756 mmHg 7%
    13:00 +42°C° 0 mm 3 mps 755 mmHg 7%
    14:00 +44°C° 0 mm 3 mps 754 mmHg 7%
    15:00 +41°C° 0 mm 2 mps 754 mmHg 8%
    16:00 +40°C° 0 mm 2 mps 754 mmHg 9%
    17:00 +39°C° 0 mm 1 mps 754 mmHg 10%
    18:00 +35°C° 0 mm 1 mps 755 mmHg 13%
    19:00 +32°C° 0 mm 1 mps 755 mmHg 17%
    20:00 +30°C° 0 mm 1 mps 756 mmHg 21%
    21:00 +28°C° 0 mm 1 mps 756 mmHg 30%
    22:00 +27°C° 0 mm 1 mps 756 mmHg 39%
    23:00 +26°C° 0 mm 1 mps 756 mmHg 48%

    22 Diciembre, Sábado

    Tiempo Temperatura Precipitaciones Viento Presión Humedad
    00:00 +25°C° 0 mm 1 mps 756 mmHg 55%
    01:00 +24°C° 0 mm 1 mps 756 mmHg 61%
    02:00 +23°C° 0 mm 1 mps 756 mmHg 68%
    03:00 +23°C° 0 mm 1 mps 756 mmHg 67%
    04:00 +21°C° 0 mm 0 mps 756 mmHg 67%
    05:00 +20°C° 0 mm 0 mps 756 mmHg 67%
    06:00 +24°C° 0 mm 1 mps 757 mmHg 57%
    07:00 +26°C° 0 mm 1 mps 757 mmHg 47%
    08:00 +28°C° 0 mm 1 mps 757 mmHg 37%
    09:00 +31°C° 0 mm 2 mps 757 mmHg 29%
    10:00 +35°C° 0 mm 2 mps 757 mmHg 20%
    11:00 +38°C° 0 mm 3 mps 757 mmHg 12%
    12:00 +39°C° 0 mm 3 mps 756 mmHg 11%
    13:00 +40°C° 0 mm 3 mps 755 mmHg 11%
    14:00 +43°C° 0 mm 3 mps 754 mmHg 10%
    15:00 +40°C° 0 mm 2 mps 754 mmHg 11%
    16:00 +39°C° 0 mm 2 mps 754 mmHg 12%
    17:00 +37°C° 0 mm 1 mps 754 mmHg 13%
    18:00 +35°C° 0 mm 1 mps 754 mmHg 16%
    19:00 +32°C° 0 mm 1 mps 755 mmHg 19%
    20:00 +29°C° 0 mm 1 mps 756 mmHg 23%
    21:00 +28°C° 0 mm 1 mps 756 mmHg 31%
    22:00 +27°C° 0 mm 1 mps 756 mmHg 40%
    23:00 +25°C° 0 mm 1 mps 756 mmHg 48%

    23 Diciembre, Domingo

    Tiempo Temperatura Precipitaciones Viento Presión Humedad
    00:00 +25°C° 0 mm 1 mps 756 mmHg 53%
    01:00 +24°C° 0 mm 1 mps 756 mmHg 58%
    02:00 +23°C° 0 mm 1 mps 756 mmHg 62%
    03:00 +23°C° 0 mm 1 mps 756 mmHg 59%
    04:00 +23°C° 0 mm 1 mps 756 mmHg 56%
    05:00 +22°C° 0 mm 1 mps 756 mmHg 53%
    06:00 +24°C° 0 mm 1 mps 756 mmHg 43%
    07:00 +26°C° 0 mm 2 mps 757 mmHg 33%
    08:00 +28°C° 0 mm 2 mps 757 mmHg 22%
    09:00 +31°C° 0 mm 3 mps 757 mmHg 18%
    10:00 +35°C° 0 mm 3 mps 756 mmHg 13%
    11:00 +38°C° 0 mm 4 mps 756 mmHg 8%
    12:00 +39°C° 0 mm 3 mps 755 mmHg 8%
    13:00 +40°C° 0 mm 3 mps 754 mmHg 8%
    14:00 +43°C° 0 mm 3 mps 753 mmHg 7%
    15:00 +40°C° 0 mm 2 mps 753 mmHg 8%
    16:00 +39°C° 0 mm 2 mps 753 mmHg 9%
    17:00 +37°C° 0 mm 1 mps 753 mmHg 9%
    18:00 +34°C° 0 mm 1 mps 754 mmHg 12%
    19:00 +32°C° 0 mm 1 mps 755 mmHg 15%
    20:00 +29°C° 0 mm 2 mps 755 mmHg 17%
    21:00 +28°C° 0 mm 1 mps 756 mmHg 24%
    22:00 +27°C° 0 mm 1 mps 756 mmHg 31%
    23:00 +26°C° 0 mm 1 mps 756 mmHg 38%

    24 Diciembre, Lunes

    Tiempo Temperatura Precipitaciones Viento Presión Humedad
    00:00 +25°C° 0 mm 1 mps 756 mmHg 39%
    01:00 +24°C° 0 mm 1 mps 756 mmHg 41%
    02:00 +21°C° 0 mm 0 mps 756 mmHg 42%
    03:00 +23°C° 0 mm 1 mps 756 mmHg 38%
    04:00 +22°C° 0 mm 1 mps 756 mmHg 34%
    05:00 +22°C° 0 mm 1 mps 756 mmHg 31%
    06:00 +24°C° 0 mm 1 mps 756 mmHg 26%
    07:00 +26°C° 0 mm 2 mps 757 mmHg 22%
    08:00 +27°C° 0 mm 2 mps 757 mmHg 17%
    09:00 +31°C° 0 mm 3 mps 757 mmHg 14%
    10:00 +35°C° 0 mm 3 mps 756 mmHg 11%
    11:00 +39°C° 0 mm 3 mps 756 mmHg 8%
    12:00 +40°C° 0 mm 3 mps 755 mmHg 7%
    13:00 +42°C° 0 mm 3 mps 754 mmHg 7%
    14:00 +42°C° 0 mm 2 mps 753 mmHg 6%
    15:00 +40°C° 0 mm 2 mps 753 mmHg 7%
    16:00 +39°C° 0 mm 2 mps 754 mmHg 8%
    17:00 +37°C° 0 mm 1 mps 754 mmHg 8%
    18:00 +34°C° 0 mm 1 mps 754 mmHg 10%
    19:00 +32°C° 0 mm 2 mps 755 mmHg 11%
    20:00 +29°C° 0 mm 2 mps 756 mmHg 13%
    21:00 +28°C° 0 mm 2 mps 756 mmHg 15%
    22:00 +27°C° 0 mm 1 mps 756 mmHg 17%
    23:00 +26°C° 0 mm 1 mps 756 mmHg 19%
    Mostrar más